Regional Weather Roundup
Issued by NWS

Home | Current Version | Previous Version | Graphics & Text | Print | Product List | Glossary On
Versions: 1 2 3 4 5 6 7 8 9 10 11 12 13 14 15 16 17 18 19 20 21 22 23 24 25 26 27 28 29 30 31 32 33 34 35 36 37 38 39 40 41 42 43 44 45 46 47 48 49 50
000
ASUS43 KFSD 231410
RWRSD

WEATHER ROUNDUP FOR SOUTH DAKOTA
NATIONAL WEATHER SERVICE SIOUX FALLS SD
900 AM CDT MON APR 23 2018

NOTE: "FAIR" INDICATES FEW OR NO CLOUDS BELOW 12,000 FEET WITH NO
SIGNIFICANT WEATHER AND/OR OBSTRUCTIONS TO VISIBILITY.


SDZ001>005-009-010-012>017-231500-
NORTHWEST AND NORTH CENTRAL SOUTH DAKOTA

CITY           SKY/WX    TMP DP  RH WIND       PRES   REMARKS
BUFFALO          N/A     48  35  60 NE17      30.06R
FAITH            N/A     47  40  76 NE5       30.13R
MOBRIDGE       SUNNY     50  38  63 SE7       30.14S
$$

SDZ012>016-024>037-041>051-057-063-072>074-231500-
SOUTHWEST AND SOUTH CENTRAL SOUTH DAKOTA

CITY           SKY/WX    TMP DP  RH WIND       PRES   REMARKS
RAPID CTY ARPT SUNNY     44  39  82 VRB3      30.09S
PIERRE         SUNNY     47  40  76 SE7       30.15S
CUSTER         SUNNY     48  36  63 NE5       30.10S
PHILIP         SUNNY     46  40  79 E6        30.12S
PINE RIDGE     SUNNY     50  38  63 S14G21    30.11R
SPEARFISH      FAIR      48  34  57 CALM      30.10S
WINNER         FAIR      52  40  63 SE7       30.17S
$$

SDZ004>011-016>023-039-040-231500-
NORTHEAST SOUTH DAKOTA

CITY           SKY/WX    TMP DP  RH WIND       PRES   REMARKS
ABERDEEN       SUNNY     46  40  79 S6        30.21S
WATERTOWN      SUNNY     46  38  73 S8        30.21S
BROOKINGS      SUNNY     47  38  71 S5        30.22S
SISSETON         N/A     48  41  76 E6        30.19F
$$

SDZ017-020-022-023-036>040-048>070-231500-
SOUTHEAST SOUTH DAKOTA

CITY           SKY/WX    TMP DP  RH WIND       PRES   REMARKS
SIOUX FALLS    MOSUNNY   48  38  68 CALM      30.22S
HURON          SUNNY     46  40  79 SE7       30.19S
CHAMBERLAIN    SUNNY     49  42  79 CALM      30.18S
MITCHELL       SUNNY     47  42  83 SE8       30.20S
YANKTON        SUNNY     46  42  86 E5        30.21S
$$

ABBREVIATIONS USED IN REMARKS
   TC - TEMPERATURE IN CELSIUS
  WCI - WIND CHILL INDEX
   HX - HEAT INDEX
  VSB - VISIBILITY





USA.gov is the U.S. government's official web portal to all federal, state and local government web resources and services.